| time (UTC) | temp F | wind direction | speed knots | gust knots | rain 1hr in | rain 24hr in | rain mn in | humidity % | barometer mb |
| 20260508121516 | 51 | 95 | 3.5 | 0.0 | 0.00 | 0.00 | 0.02 | 45 | 1021.3 |
| 20260508120011 | 51 | 103 | 3.5 | 0.0 | 0.00 | 0.00 | 0.02 | 49 | 1021.2 |
| 20260508114509 | 49 | 89 | 3.5 | 0.0 | 0.00 | 0.00 | 0.02 | 51 | 1021.4 |
| 20260508113007 | 49 | 94 | 3.5 | 0.0 | 0.00 | 0.00 | 0.02 | 49 | 1021.4 |
| 20260508111506 | 49 | 132 | 5.2 | 0.0 | 0.00 | 0.00 | 0.02 | 51 | 1021.4 |
| 20260508110003 | 52 | 80 | 1.7 | 0.0 | 0.00 | 0.00 | 0.02 | 48 | 1021.4 |
| 20260508104605 | 52 | 173 | 1.7 | 0.0 | 0.00 | 0.00 | 0.02 | 50 | 1021.5 |
| 20260508103058 | 50 | 93 | 1.7 | 0.0 | 0.00 | 0.00 | 0.02 | 51 | 1021.6 |
| 20260508101556 | 48 | 302 | 1.7 | 0.0 | 0.00 | 0.00 | 0.02 | 54 | 1021.6 |
| 20260508100049 | 46 | 206 | 0.9 | 0.0 | 0.00 | 0.00 | 0.02 | 58 | 1021.7 |
| 20260508094554 | 46 | 248 | 0.9 | 0.0 | 0.00 | 0.00 | 0.02 | 63 | 1021.9 |
| 20260508093055 | 46 | 254 | 0.9 | 0.0 | 0.00 | 0.00 | 0.02 | 62 | 1022.0 |
| 20260508091543 | 45 | 258 | 0.9 | 0.0 | 0.00 | 0.00 | 0.02 | 64 | 1021.8 |
| 20260508084538 | 46 | 318 | 1.7 | 0.0 | 0.00 | 0.00 | 0.02 | 63 | 1021.9 |
| 20260508083036 | 45 | 209 | 1.7 | 0.0 | 0.00 | 0.00 | 0.02 | 69 | 1021.7 |
| 20260508081531 | 45 | 310 | 0.0 | 0.0 | 0.00 | 0.00 | 0.02 | 72 | 1021.6 |
| 20260508080036 | 44 | 317 | 0.9 | 0.0 | 0.00 | 0.00 | 0.02 | 75 | 1021.6 |
| 20260508074535 | 44 | 327 | 0.0 | 0.0 | 0.00 | 0.00 | 0.02 | 75 | 1021.5 |
| 20260508073023 | 44 | 40 | 1.7 | 0.0 | 0.00 | 0.00 | 0.02 | 77 | 1021.4 |
| 20260508071525 | 44 | 44 | 1.7 | 0.0 | 0.00 | 0.00 | 0.02 | 80 | 1021.5 |
| 20260508070014 | 42 | 51 | 1.7 | 0.0 | 0.00 | 0.00 | 0.02 | 85 | 1021.3 |
| 20260508064513 | 40 | 46 | 2.6 | 0.0 | 0.00 | 0.00 | 0.02 | 88 | 1021.2 |
| 20260508063007 | 39 | 53 | 2.6 | 0.0 | 0.00 | 0.00 | 0.02 | 89 | 1021.2 |
| 20260508061507 | 39 | 42 | 1.7 | 0.0 | 0.00 | 0.00 | 0.02 | 90 | 1021.3 |
| 20260508060005 | 39 | 52 | 2.6 | 0.0 | 0.00 | 0.00 | 0.02 | 90 | 1021.2 |
| 20260508054504 | 39 | 47 | 3.5 | 0.0 | 0.00 | 0.00 | 0.02 | 91 | 1021.1 |
| 20260508053001 | 38 | 62 | 1.7 | 0.0 | 0.00 | 0.00 | 0.02 | 91 | 1020.9 |
| 20260508051600 | 38 | 45 | 1.7 | 0.0 | 0.00 | 0.00 | 0.02 | 92 | 1020.8 |
| 20260508050059 | 37 | 42 | 1.7 | 0.0 | 0.00 | 0.00 | 0.02 | 92 | 1020.8 |
| 20260508044602 | 37 | 40 | 0.9 | 0.0 | 0.00 | 0.00 | 0.02 | 92 | 1020.6 |
| 20260508043054 | 37 | 42 | 0.9 | 0.0 | 0.00 | 0.00 | 0.02 | 92 | 1020.4 |
| 20260508041558 | 37 | 42 | 0.9 | 0.0 | 0.00 | 0.00 | 0.02 | 92 | 1020.4 |
| 20260508040056 | 36 | 65 | 0.9 | 0.0 | 0.00 | 0.00 | 0.02 | 93 | 1020.3 |
| 20260508034600 | 36 | 72 | 0.9 | 0.0 | 0.00 | 0.00 | 0.02 | 92 | 1020.3 |
| 20260508033049 | 35 | 71 | 0.9 | 0.0 | 0.00 | 0.00 | 0.02 | 92 | 1020.2 |
| 20260508031558 | 35 | 83 | 0.9 | 0.0 | 0.00 | 0.00 | 0.02 | 92 | 1020.0 |
| 20260508030106 | 35 | 100 | 1.7 | 0.0 | 0.00 | 0.00 | 0.02 | 92 | 1020.0 |
| 20260508024547 | 35 | 240 | 0.0 | 0.0 | 0.00 | 0.00 | 0.00 | 92 | 1020.1 |
| 20260508023048 | 35 | 240 | 0.0 | 0.0 | 0.00 | 0.00 | 0.00 | 92 | 1019.7 |
| 20260508021546 | 34 | 240 | 0.0 | 0.0 | 0.00 | 0.00 | 0.00 | 91 | 1019.9 |
| 20260508020043 | 34 | 241 | 0.0 | 0.0 | 0.00 | 0.00 | 0.00 | 91 | 1019.9 |
| 20260508014542 | 35 | 242 | 0.0 | 0.0 | 0.00 | 0.00 | 0.00 | 91 | 1019.6 |
| 20260508013040 | 35 | 242 | 0.0 | 0.0 | 0.00 | 0.00 | 0.00 | 91 | 1019.4 |
| 20260508011540 | 34 | 244 | 0.0 | 0.0 | 0.00 | 0.00 | 0.00 | 91 | 1019.4 |
| 20260508010042 | 34 | 244 | 0.0 | 0.0 | 0.00 | 0.00 | 0.00 | 90 | 1019.4 |
| 20260508004534 | 35 | 244 | 0.0 | 0.0 | 0.00 | 0.00 | 0.00 | 90 | 1019.1 |
| 20260508003033 | 36 | 244 | 0.0 | 0.0 | 0.00 | 0.00 | 0.00 | 90 | 1019.2 |
| 20260508001535 | 36 | 244 | 0.0 | 0.0 | 0.00 | 0.00 | 0.00 | 90 | 1019.1 |
| 20260508000031 | 36 | 244 | 0.0 | 0.0 | 0.00 | 0.00 | 0.00 | 90 | 1018.8 |
| 20260507234535 | 36 | 246 | 0.0 | 0.0 | 0.00 | 0.00 | 0.00 | 90 | 1018.7 |
| 20260507233027 | 36 | 237 | 0.0 | 0.0 | 0.00 | 0.00 | 0.00 | 90 | 1018.7 |
| 20260507231525 | 36 | 252 | 1.7 | 0.0 | 0.00 | 0.00 | 0.00 | 91 | 1018.6 |
| 20260507230022 | 35 | 89 | 0.9 | 0.0 | 0.00 | 0.00 | 0.00 | 90 | 1018.3 |
| 20260507224526 | 36 | 72 | 0.0 | 0.0 | 0.00 | 0.00 | 0.00 | 89 | 1018.3 |
| 20260507223017 | 36 | 72 | 0.9 | 0.0 | 0.00 | 0.00 | 0.00 | 89 | 1018.1 |
| 20260507221518 | 37 | 84 | 1.7 | 0.0 | 0.00 | 0.00 | 0.00 | 90 | 1017.8 |
| 20260507220013 | 36 | 360 | 0.0 | 0.0 | 0.00 | 0.00 | 0.06 | 88 | 1017.6 |
| 20260507214510 | 36 | 360 | 0.0 | 0.0 | 0.00 | 0.00 | 0.06 | 88 | 1017.8 |
| 20260507213018 | 36 | 360 | 0.0 | 0.0 | 0.00 | 0.00 | 0.06 | 88 | 1017.7 |
| 20260507211508 | 36 | 360 | 0.0 | 0.0 | 0.00 | 0.00 | 0.06 | 88 | 1017.6 |
| 20260507210023 | 36 | 309 | 0.0 | 0.0 | 0.00 | 0.00 | 0.06 | 86 | 1017.5 |
| 20260507204507 | 37 | 309 | 0.0 | 0.0 | 0.00 | 0.00 | 0.06 | 86 | 1017.4 |
| 20260507203010 | 38 | 309 | 0.0 | 0.0 | 0.00 | 0.00 | 0.06 | 85 | 1017.2 |
| 20260507201513 | 39 | 308 | 0.0 | 0.0 | 0.00 | 0.00 | 0.06 | 84 | 1017.0 |
| 20260507200011 | 39 | 308 | 0.0 | 0.0 | 0.00 | 0.00 | 0.06 | 84 | 1016.9 |
| 20260507194502 | 39 | 309 | 0.0 | 0.0 | 0.00 | 0.00 | 0.06 | 84 | 1016.8 |
| 20260507193132 | 39 | 309 | 0.0 | 0.0 | 0.00 | 0.00 | 0.06 | 85 | 1016.6 |
| 20260507191603 | 39 | 311 | 1.7 | 0.0 | 0.00 | 0.00 | 0.06 | 84 | 1016.4 |
| 20260507190059 | 39 | 279 | 2.6 | 0.0 | 0.00 | 0.00 | 0.06 | 83 | 1016.5 |
| 20260507184559 | 40 | 262 | 0.0 | 0.0 | 0.00 | 0.00 | 0.06 | 81 | 1016.5 |
| 20260507183102 | 41 | 304 | 0.0 | 0.0 | 0.00 | 0.00 | 0.06 | 80 | 1016.1 |
| 20260507181555 | 41 | 293 | 0.9 | 0.0 | 0.00 | 0.00 | 0.06 | 80 | 1016.1 |
| 20260507180057 | 41 | 308 | 0.9 | 0.0 | 0.00 | 0.00 | 0.06 | 79 | 1015.7 |
| 20260507174600 | 42 | 289 | 0.9 | 0.0 | 0.00 | 0.00 | 0.06 | 77 | 1015.9 |
| 20260507173128 | 42 | 239 | 1.7 | 0.0 | 0.00 | 0.00 | 0.06 | 76 | 1015.6 |
| 20260507171551 | 43 | 227 | 1.7 | 0.0 | 0.00 | 0.00 | 0.06 | 74 | 1015.6 |
| 20260507170053 | 43 | 229 | 2.6 | 0.0 | 0.00 | 0.00 | 0.06 | 74 | 1015.5 |
| 20260507164557 | 45 | 228 | 1.7 | 0.0 | 0.00 | 0.00 | 0.06 | 74 | 1015.5 |
| 20260507163049 | 44 | 240 | 1.7 | 0.0 | 0.00 | 0.00 | 0.06 | 76 | 1015.3 |
| 20260507161603 | 43 | 306 | 1.7 | 0.0 | 0.00 | 0.00 | 0.06 | 80 | 1015.3 |
| 20260507154548 | 41 | 299 | 2.6 | 0.0 | 0.00 | 0.00 | 0.06 | 80 | 1015.5 |
| 20260507153047 | 42 | 299 | 2.6 | 0.0 | 0.00 | 0.00 | 0.06 | 79 | 1015.4 |
| 20260507151546 | 42 | 252 | 6.1 | 0.0 | 0.00 | 0.00 | 0.06 | 79 | 1015.4 |
| 20260507150045 | 42 | 199 | 2.6 | 0.0 | 0.00 | 0.00 | 0.06 | 78 | 1015.3 |
| 20260507144556 | 42 | 254 | 2.6 | 0.0 | 0.00 | 0.00 | 0.06 | 78 | 1015.3 |
| 20260507143045 | 42 | 279 | 4.3 | 0.0 | 0.00 | 0.00 | 0.06 | 78 | 1015.1 |
| 20260507141542 | 43 | 258 | 4.3 | 0.0 | 0.00 | 0.00 | 0.06 | 78 | 1015.0 |
| 20260507140042 | 44 | 216 | 3.5 | 0.0 | 0.00 | 0.00 | 0.06 | 77 | 1014.8 |
| 20260507134539 | 44 | 249 | 2.6 | 0.0 | 0.00 | 0.00 | 0.06 | 75 | 1014.6 |
| 20260507133040 | 46 | 280 | 2.6 | 0.0 | 0.00 | 0.00 | 0.06 | 73 | 1014.5 |
| 20260507131537 | 47 | 242 | 3.5 | 0.0 | 0.00 | 0.00 | 0.06 | 74 | 1014.6 |
| 20260507130039 | 46 | 224 | 3.5 | 0.0 | 0.00 | 0.00 | 0.06 | 76 | 1014.4 |
| 20260507124531 | 45 | 255 | 4.3 | 0.0 | 0.00 | 0.00 | 0.06 | 75 | 1014.4 |
| 20260507123039 | 43 | 243 | 3.5 | 0.0 | 0.00 | 0.00 | 0.06 | 78 | 1014.3 |